FDX1015 KSFO-KLAX

Flight info

Callsign FDX1015
Flight time 0h 52m
Altitude 35000
Route WESLA5 SUSEY EBAYE BURGL IRNMN2
Aircraft B77L/H-SDE1E2E3FGHIJ2J3J4J5M1RWXY/LB1D1

Departure

Time 2026-05-06 05:53
Airport San Francisco International Airport (KSFO)

Arrival

Time 2026-05-06 06:45
Airport Los Angeles International Airport (KLAX)
Time Latitude Longitude Altitude Speed Heading
2026-05-06 05:03 37.63665 -122.38797 21 ft 0 kts 57°
2026-05-06 05:35 37.63646 -122.38835 25 ft 6 kts 58°
2026-05-06 05:35 37.63635 -122.38861 27 ft 2 kts 78°
2026-05-06 05:36 37.63635 -122.38875 27 ft 2 kts 134°
2026-05-06 05:36 37.63643 -122.38883 26 ft 2 kts 148°
2026-05-06 05:36 37.63647 -122.38886 25 ft 0 kts 149°
2026-05-06 05:41 37.63634 -122.38876 27 ft 6 kts 149°
2026-05-06 05:41 37.63595 -122.38847 25 ft 6 kts 148°
2026-05-06 05:41 37.63553 -122.38817 24 ft 8 kts 159°
2026-05-06 05:42 37.63478 -122.38849 21 ft 15 kts 225°
2026-05-06 05:42 37.63431 -122.38967 21 ft 16 kts 252°
2026-05-06 05:42 37.63389 -122.39093 24 ft 16 kts 245°
2026-05-06 05:42 37.63308 -122.39174 23 ft 16 kts 182°
2026-05-06 05:43 37.63208 -122.39146 25 ft 13 kts 191°
2026-05-06 05:43 37.63159 -122.39216 27 ft 11 kts 236°
2026-05-06 05:43 37.63083 -122.39248 28 ft 17 kts 166°
2026-05-06 05:43 37.62969 -122.39179 27 ft 19 kts 134°
2026-05-06 05:44 37.62903 -122.39038 28 ft 19 kts 117°
2026-05-06 05:44 37.62844 -122.38910 28 ft 12 kts 142°
2026-05-06 05:44 37.62760 -122.38930 28 ft 15 kts 205°
2026-05-06 05:44 37.62694 -122.39045 27 ft 19 kts 218°
2026-05-06 05:45 37.62564 -122.39132 32 ft 23 kts 207°
2026-05-06 05:45 37.62481 -122.39170 26 ft 12 kts 179°
2026-05-06 05:45 37.62410 -122.39084 22 ft 17 kts 118°
2026-05-06 05:45 37.62357 -122.38957 20 ft 14 kts 118°
2026-05-06 05:46 37.62311 -122.38850 24 ft 14 kts 117°
2026-05-06 05:46 37.62267 -122.38742 21 ft 14 kts 117°
2026-05-06 05:46 37.62222 -122.38634 24 ft 14 kts 117°
2026-05-06 05:46 37.62178 -122.38526 29 ft 14 kts 117°
2026-05-06 05:47 37.62137 -122.38430 29 ft 14 kts 118°
2026-05-06 05:47 37.62096 -122.38334 26 ft 13 kts 118°
2026-05-06 05:47 37.62052 -122.38230 27 ft 14 kts 118°
2026-05-06 05:47 37.62008 -122.38122 27 ft 15 kts 117°
2026-05-06 05:48 37.61957 -122.38007 29 ft 15 kts 126°
2026-05-06 05:48 37.61881 -122.37924 28 ft 15 kts 150°
2026-05-06 05:48 37.61814 -122.37821 26 ft 16 kts 109°
2026-05-06 05:48 37.61776 -122.37689 26 ft 15 kts 111°
2026-05-06 05:49 37.61740 -122.37571 29 ft 14 kts 111°
2026-05-06 05:49 37.61700 -122.37457 27 ft 18 kts 116°
2026-05-06 05:49 37.61624 -122.37281 27 ft 23 kts 118°
2026-05-06 05:49 37.61549 -122.37106 25 ft 23 kts 118°
2026-05-06 05:50 37.61473 -122.36939 27 ft 22 kts 128°
2026-05-06 05:50 37.61366 -122.36775 25 ft 27 kts 123°
2026-05-06 05:50 37.61277 -122.36565 21 ft 27 kts 118°
2026-05-06 05:50 37.61191 -122.36359 23 ft 25 kts 118°
2026-05-06 05:51 37.61114 -122.36175 26 ft 15 kts 113°
2026-05-06 05:51 37.61141 -122.36084 23 ft 12 kts 33°
2026-05-06 05:51 37.61216 -122.36034 21 ft 12 kts 10°
2026-05-06 05:51 37.61266 -122.36076 19 ft 0 kts 300°
2026-05-06 05:52 37.61346 -122.36261 18 ft 61 kts 297°
2026-05-06 05:52 37.61656 -122.36997 29 ft 126 kts 298°
2026-05-06 05:52 37.62152 -122.38177 61 ft 171 kts 297°
2026-05-06 05:53 37.62736 -122.39539 484 ft 180 kts 296°
2026-05-06 05:53 37.63330 -122.40956 1117 ft 186 kts 298°
2026-05-06 05:53 37.63975 -122.42375 1794 ft 188 kts 298°
2026-05-06 05:53 37.64639 -122.43869 2038 ft 213 kts 297°
2026-05-06 05:54 37.65379 -122.45584 2498 ft 225 kts 296°
2026-05-06 05:54 37.66133 -122.47362 3073 ft 233 kts 297°
2026-05-06 05:54 37.66820 -122.49251 3560 ft 246 kts 281°
2026-05-06 05:54 37.66645 -122.51424 4015 ft 259 kts 245°
2026-05-06 05:55 37.65495 -122.53214 4638 ft 271 kts 216°
2026-05-06 05:55 37.63736 -122.54171 5276 ft 280 kts 187°
2026-05-06 05:55 37.61809 -122.54012 6090 ft 279 kts 163°
2026-05-06 05:55 37.59960 -122.53161 6766 ft 286 kts 155°
2026-05-06 05:56 37.58131 -122.52154 7541 ft 287 kts 154°
2026-05-06 05:56 37.56288 -122.51151 8323 ft 290 kts 155°
2026-05-06 05:56 37.54410 -122.50175 9089 ft 293 kts 155°
2026-05-06 05:56 37.52506 -122.49214 9863 ft 296 kts 155°
2026-05-06 05:57 37.50571 -122.48249 10480 ft 305 kts 155°
2026-05-06 05:57 37.48625 -122.47046 10623 ft 320 kts 139°
2026-05-06 05:57 37.47025 -122.45033 10797 ft 336 kts 129°
2026-05-06 05:57 37.45413 -122.42758 10985 ft 361 kts 129°
2026-05-06 05:58 37.43693 -122.40356 11460 ft 376 kts 129°
2026-05-06 05:58 37.41914 -122.37893 12161 ft 385 kts 130°
2026-05-06 05:58 37.40098 -122.35399 13043 ft 389 kts 130°
2026-05-06 05:58 37.38256 -122.32880 13966 ft 393 kts 130°
2026-05-06 05:59 37.37020 -122.31198 14474 ft 397 kts 130°
2026-05-06 05:59 37.35131 -122.28630 15229 ft 403 kts 130°
2026-05-06 05:59 37.33212 -122.26029 15980 ft 409 kts 130°
2026-05-06 05:59 37.31267 -122.23387 16701 ft 414 kts 130°
2026-05-06 06:00 37.28649 -122.19847 17686 ft 422 kts 129°
2026-05-06 06:00 37.26634 -122.17125 18410 ft 428 kts 129°
2026-05-06 06:00 37.24598 -122.14375 19039 ft 432 kts 129°
2026-05-06 06:00 37.23208 -122.12500 19482 ft 435 kts 129°
2026-05-06 06:01 37.21139 -122.09710 20116 ft 439 kts 129°
2026-05-06 06:01 37.19048 -122.06891 20757 ft 443 kts 129°
2026-05-06 06:01 37.16937 -122.04048 21389 ft 448 kts 129°
2026-05-06 06:01 37.14803 -122.01179 21997 ft 452 kts 129°
2026-05-06 06:02 37.12647 -121.98288 22603 ft 456 kts 129°
2026-05-06 06:02 37.10502 -121.95406 23227 ft 460 kts 128°
2026-05-06 06:02 37.08314 -121.92469 23825 ft 464 kts 128°
2026-05-06 06:02 37.06107 -121.89509 24372 ft 467 kts 128°
2026-05-06 06:03 37.03881 -121.86527 24938 ft 470 kts 128°
2026-05-06 06:03 37.01641 -121.83529 25453 ft 474 kts 128°
2026-05-06 06:03 36.99381 -121.80509 25964 ft 477 kts 128°
2026-05-06 06:03 36.97106 -121.77473 26518 ft 480 kts 128°
2026-05-06 06:04 36.94818 -121.74419 27056 ft 482 kts 128°
2026-05-06 06:04 36.92515 -121.71349 27561 ft 486 kts 128°
2026-05-06 06:04 36.90196 -121.68261 28042 ft 489 kts 128°
2026-05-06 06:04 36.87860 -121.65151 28521 ft 492 kts 128°
2026-05-06 06:05 36.85510 -121.62028 28984 ft 495 kts 128°
2026-05-06 06:05 36.83143 -121.58886 29446 ft 498 kts 128°
2026-05-06 06:05 36.80763 -121.55730 29905 ft 500 kts 128°
2026-05-06 06:05 36.78374 -121.52566 30344 ft 502 kts 128°
2026-05-06 06:06 36.75984 -121.49404 30835 ft 500 kts 128°
2026-05-06 06:06 36.73604 -121.46259 31414 ft 496 kts 128°
2026-05-06 06:06 36.71240 -121.43139 31937 ft 494 kts 128°
2026-05-06 06:06 36.68883 -121.40027 32397 ft 493 kts 128°
2026-05-06 06:07 36.66532 -121.36926 32849 ft 492 kts 128°
2026-05-06 06:07 36.64181 -121.33826 33189 ft 493 kts 128°
2026-05-06 06:07 36.59458 -121.27607 33149 ft 492 kts 128°
2026-05-06 06:08 36.54760 -121.21440 33167 ft 491 kts 128°
2026-05-06 06:08 36.50060 -121.15277 33150 ft 491 kts 128°
2026-05-06 06:09 36.45354 -121.09116 33145 ft 491 kts 128°
2026-05-06 06:09 36.40701 -121.02916 33143 ft 490 kts 126°
2026-05-06 06:10 36.36273 -120.96496 33131 ft 489 kts 124°
2026-05-06 06:10 36.31908 -120.90103 33133 ft 489 kts 124°
2026-05-06 06:11 36.27477 -120.83703 33148 ft 489 kts 125°
2026-05-06 06:11 36.23021 -120.77336 33150 ft 489 kts 125°
2026-05-06 06:12 36.18552 -120.70963 33138 ft 490 kts 125°
2026-05-06 06:12 36.14073 -120.64579 33132 ft 491 kts 125°
2026-05-06 06:13 36.09587 -120.58195 33126 ft 492 kts 125°
2026-05-06 06:13 36.05095 -120.51819 33120 ft 492 kts 125°
2026-05-06 06:14 36.00600 -120.45448 33118 ft 491 kts 125°
2026-05-06 06:14 35.96114 -120.39102 33119 ft 490 kts 125°
2026-05-06 06:15 35.91644 -120.32787 33123 ft 488 kts 125°
2026-05-06 06:15 35.86932 -120.26718 33118 ft 494 kts 133°
2026-05-06 06:16 35.81310 -120.21724 33115 ft 503 kts 143°
2026-05-06 06:16 35.75289 -120.17311 33128 ft 504 kts 143°
2026-05-06 06:17 35.69292 -120.12837 33106 ft 504 kts 142°
2026-05-06 06:17 35.63313 -120.08325 33117 ft 504 kts 142°
2026-05-06 06:18 35.57344 -120.03816 33133 ft 504 kts 142°
2026-05-06 06:18 35.51372 -119.99311 33102 ft 503 kts 142°
2026-05-06 06:19 35.45445 -119.94851 33114 ft 502 kts 142°
2026-05-06 06:19 35.39493 -119.90378 33122 ft 502 kts 142°
2026-05-06 06:20 35.33527 -119.85900 33106 ft 502 kts 142°
2026-05-06 06:20 35.27595 -119.81402 33115 ft 499 kts 139°
2026-05-06 06:21 35.22074 -119.76341 33149 ft 495 kts 134°
2026-05-06 06:21 35.16673 -119.71075 32326 ft 500 kts 135°
2026-05-06 06:22 35.13978 -119.68510 31536 ft 481 kts 135°
2026-05-06 06:22 35.11368 -119.66070 30662 ft 465 kts 135°
2026-05-06 06:22 35.08844 -119.63729 30063 ft 447 kts 135°
2026-05-06 06:22 35.06378 -119.61437 29453 ft 448 kts 135°
2026-05-06 06:23 35.03863 -119.59083 28882 ft 465 kts 135°
2026-05-06 06:23 35.01236 -119.56623 28267 ft 485 kts 136°
2026-05-06 06:23 34.98542 -119.54121 27618 ft 486 kts 136°
2026-05-06 06:23 34.95860 -119.51646 27013 ft 481 kts 136°
2026-05-06 06:24 34.93209 -119.49200 26435 ft 475 kts 136°
2026-05-06 06:24 34.90595 -119.46786 26206 ft 473 kts 137°
2026-05-06 06:24 34.87947 -119.44390 26092 ft 472 kts 137°
2026-05-06 06:24 34.85316 -119.42050 26111 ft 465 kts 137°
2026-05-06 06:25 34.82708 -119.39734 26085 ft 465 kts 137°
2026-05-06 06:25 34.80126 -119.37436 26071 ft 452 kts 137°
2026-05-06 06:25 34.75256 -119.33100 26074 ft 421 kts 136°
2026-05-06 06:26 34.72887 -119.30994 26010 ft 422 kts 137°
2026-05-06 06:26 34.70505 -119.28909 25603 ft 421 kts 137°
2026-05-06 06:26 34.68165 -119.26877 24937 ft 406 kts 137°
2026-05-06 06:26 34.65884 -119.24893 23960 ft 401 kts 137°
2026-05-06 06:27 34.63627 -119.22927 22826 ft 398 kts 138°
2026-05-06 06:27 34.61384 -119.20990 21714 ft 394 kts 139°
2026-05-06 06:27 34.59137 -119.19054 20901 ft 398 kts 139°
2026-05-06 06:27 34.56889 -119.17117 20511 ft 394 kts 140°
2026-05-06 06:28 34.54684 -119.15199 20221 ft 387 kts 139°
2026-05-06 06:28 34.52527 -119.13288 19885 ft 381 kts 139°
2026-05-06 06:28 34.50398 -119.11391 19473 ft 377 kts 139°
2026-05-06 06:28 34.48320 -119.09547 18717 ft 366 kts 140°
2026-05-06 06:29 34.46272 -119.07733 17696 ft 363 kts 140°
2026-05-06 06:29 34.44248 -119.05948 17483 ft 360 kts 140°
2026-05-06 06:29 34.42190 -119.04145 17302 ft 369 kts 141°
2026-05-06 06:29 34.40091 -119.02328 17111 ft 372 kts 141°
2026-05-06 06:30 34.38010 -119.00532 16907 ft 371 kts 141°
2026-05-06 06:30 34.35894 -118.98705 16670 ft 363 kts 141°
2026-05-06 06:30 34.33875 -118.96958 15937 ft 352 kts 140°
2026-05-06 06:30 34.31929 -118.95205 15106 ft 344 kts 140°
2026-05-06 06:31 34.30067 -118.93499 14883 ft 346 kts 140°
2026-05-06 06:31 34.28095 -118.91696 14517 ft 354 kts 140°
2026-05-06 06:31 34.26137 -118.89920 14077 ft 349 kts 140°
2026-05-06 06:31 34.24214 -118.88170 13262 ft 343 kts 140°
2026-05-06 06:32 34.22366 -118.86472 12580 ft 330 kts 139°
2026-05-06 06:32 34.20568 -118.84820 12170 ft 310 kts 139°
2026-05-06 06:32 34.18904 -118.83291 11997 ft 307 kts 139°
2026-05-06 06:32 34.17194 -118.81719 11996 ft 309 kts 139°
2026-05-06 06:33 34.15537 -118.80118 11972 ft 301 kts 135°
2026-05-06 06:33 34.13999 -118.78456 11864 ft 293 kts 133°
2026-05-06 06:33 34.12522 -118.76814 11621 ft 286 kts 133°
2026-05-06 06:33 34.11066 -118.75197 11287 ft 282 kts 133°
2026-05-06 06:34 34.09631 -118.73619 10791 ft 278 kts 133°
2026-05-06 06:34 34.08201 -118.72058 10217 ft 277 kts 133°
2026-05-06 06:34 34.06779 -118.70511 9717 ft 274 kts 133°
2026-05-06 06:34 34.05373 -118.68976 9208 ft 271 kts 134°
2026-05-06 06:35 34.03949 -118.67417 9049 ft 279 kts 131°
2026-05-06 06:35 34.02938 -118.65501 9002 ft 268 kts 103°
2026-05-06 06:35 34.02658 -118.63332 8995 ft 259 kts 92°
2026-05-06 06:35 34.02470 -118.61174 8888 ft 257 kts 94°
2026-05-06 06:36 34.02270 -118.59044 8407 ft 255 kts 94°
2026-05-06 06:36 34.02070 -118.56916 8170 ft 259 kts 94°
2026-05-06 06:36 34.01866 -118.54727 8032 ft 265 kts 94°
2026-05-06 06:36 34.01664 -118.52583 7886 ft 247 kts 95°
2026-05-06 06:37 34.01476 -118.50588 7472 ft 234 kts 95°
2026-05-06 06:37 34.01294 -118.48659 7154 ft 233 kts 95°
2026-05-06 06:37 34.01108 -118.46678 7035 ft 240 kts 95°
2026-05-06 06:37 34.01099 -118.44715 6995 ft 230 kts 79°
2026-05-06 06:38 34.01431 -118.42806 6790 ft 235 kts 76°
2026-05-06 06:38 34.01797 -118.40894 6641 ft 232 kts 76°
2026-05-06 06:38 34.02143 -118.39011 6359 ft 228 kts 77°
2026-05-06 06:38 34.02474 -118.37151 6146 ft 228 kts 77°
2026-05-06 06:39 34.02793 -118.35289 6071 ft 226 kts 80°
2026-05-06 06:39 34.03001 -118.33419 6010 ft 224 kts 83°
2026-05-06 06:39 34.03179 -118.31563 6031 ft 222 kts 83°
2026-05-06 06:39 34.03350 -118.29732 5992 ft 213 kts 86°
2026-05-06 06:40 34.03113 -118.28004 5640 ft 208 kts 112°
2026-05-06 06:40 34.02586 -118.26432 5362 ft 196 kts 111°
2026-05-06 06:40 34.02118 -118.24927 5028 ft 187 kts 111°
2026-05-06 06:40 34.01674 -118.23491 4736 ft 182 kts 112°
2026-05-06 06:41 34.00985 -118.22227 4446 ft 182 kts 143°
2026-05-06 06:41 33.99875 -118.21555 4209 ft 179 kts 168°
2026-05-06 06:41 33.98687 -118.21516 4053 ft 170 kts 190°
2026-05-06 06:41 33.97665 -118.22162 3887 ft 169 kts 237°
2026-05-06 06:42 33.97303 -118.23474 3521 ft 163 kts 257°
2026-05-06 06:42 33.97063 -118.24807 2973 ft 162 kts 258°
2026-05-06 06:42 33.96863 -118.26136 2465 ft 159 kts 260°
2026-05-06 06:42 33.96702 -118.27415 2241 ft 157 kts 259°
2026-05-06 06:43 33.96513 -118.28729 2103 ft 159 kts 258°
2026-05-06 06:43 33.96321 -118.30040 2055 ft 160 kts 257°
2026-05-06 06:43 33.96120 -118.31369 1898 ft 166 kts 260°
2026-05-06 06:43 33.95968 -118.32757 1442 ft 165 kts 262°
2026-05-06 06:44 33.95833 -118.34086 1167 ft 157 kts 262°
2026-05-06 06:44 33.95700 -118.35398 962 ft 158 kts 262°
2026-05-06 06:44 33.95566 -118.36703 733 ft 156 kts 262°
2026-05-06 06:44 33.95435 -118.37999 527 ft 156 kts 262°
2026-05-06 06:45 33.95303 -118.39301 317 ft 157 kts 262°
2026-05-06 06:45 33.95170 -118.40605 131 ft 153 kts 261°
2026-05-06 06:45 33.95050 -118.41746 126 ft 117 kts 262°
2026-05-06 06:45 33.94978 -118.42436 126 ft 23 kts 263°
2026-05-06 06:46 33.94907 -118.42604 126 ft 16 kts 237°
2026-05-06 06:46 33.94846 -118.42690 126 ft 11 kts 221°
2026-05-06 06:46 33.94790 -118.42741 125 ft 10 kts 211°
2026-05-06 06:46 33.94725 -118.42772 126 ft 10 kts 191°
2026-05-06 06:47 33.94655 -118.42774 127 ft 10 kts 159°
2026-05-06 06:47 33.94634 -118.42727 125 ft 10 kts 89°
2026-05-06 06:47 33.94644 -118.42610 130 ft 11 kts 82°
2026-05-06 06:47 33.94650 -118.42552 130 ft 11 kts 83°
2026-05-06 06:48 33.94659 -118.42464 126 ft 11 kts 85°
2026-05-06 06:48 33.94667 -118.42376 127 ft 11 kts 84°
2026-05-06 06:48 33.94675 -118.42288 125 ft 11 kts 84°
2026-05-06 06:48 33.94687 -118.42200 126 ft 11 kts 79°
2026-05-06 06:49 33.94696 -118.42112 130 ft 11 kts 84°
2026-05-06 06:49 33.94704 -118.42022 126 ft 11 kts 83°
2026-05-06 06:49 33.94712 -118.41933 130 ft 11 kts 83°
2026-05-06 06:49 33.94722 -118.41844 127 ft 11 kts 83°
2026-05-06 06:50 33.94731 -118.41755 126 ft 11 kts 82°
2026-05-06 06:50 33.94742 -118.41666 130 ft 11 kts 82°
2026-05-06 06:50 33.94752 -118.41577 129 ft 11 kts 82°
2026-05-06 06:50 33.94761 -118.41487 125 ft 11 kts 82°
2026-05-06 06:51 33.94777 -118.41399 126 ft 11 kts 73°
2026-05-06 06:51 33.94776 -118.41311 130 ft 11 kts 121°
2026-05-06 06:51 33.94706 -118.41286 127 ft 11 kts 174°
2026-05-06 06:51 33.94629 -118.41276 126 ft 11 kts 174°
2026-05-06 06:52 33.94553 -118.41265 127 ft 11 kts 172°
2026-05-06 06:52 33.94476 -118.41253 128 ft 11 kts 173°
2026-05-06 06:52 33.94400 -118.41239 128 ft 10 kts 165°
2026-05-06 06:52 33.94393 -118.41204 126 ft 4 kts 82°
2026-05-06 06:53 33.94396 -118.41169 126 ft 4 kts 83°
2026-05-06 06:53 33.94400 -118.41134 126 ft 2 kts 83°
2026-05-06 06:53 33.94401 -118.41126 125 ft 2 kts 83°
2026-05-06 06:53 33.94401 -118.41125 125 ft 0 kts 83°